sat.trackr.live / text

‹ back to catalog

STARLINK-4108

NORAD 52834 · 2022-062E

PAYLOAD ACTIVE UNKNOWN

§ Identity

Operator
Country
US
Launch date
2022-06-17
Launch site
AFETR
Launch vehicle
Mass (kg)
RCS (m²)

Purposes: comms

External: N2YO · Heavens-Above · Gunter

§ Orbital elements

Epoch: 2026-05-25T03:15:45.585792Z

Period
95.44 min
Inclination
53.2142°
Eccentricity
0.0001478
Mean motion
15.08846349 rev/d
Perigee alt
538.7 km
Apogee alt
540.7 km
Semi-major
6,917.9 km
B*
-9.7077e-6
RAAN
50.9385°
Arg perigee
104.0580°
Mean anomaly
256.0576°
Rev number
21,732

§ Raw data

STARLINK-41081 52834U 22062E   26145.13594428 -.00000443  00000+0 -97077-5 0  99952 52834  53.2142  50.9385 0001478 104.0580 256.0576 15.08846349217323

JSON: /api/v1/satellites/52834 · /tle

For live sub-satellite position, see the globe view (requires WebGL).

§ Visibility from observer

Set your observer location to see the next 7 days of passes ≥ 10°. The values pass through the URL so the page stays shareable.

No JS? Fill the form by hand. The geolocation button needs JavaScript.